Caldwell, NJ

10:53 PM EST on November 17, 2019 (GMT -0500)
Essex County

Weather History for KCDW - September, 2019

Change the Weather History Date:

Monday, September 30, 2019

  Actual Average Record
Temperature  
Mean Temperature 66 °F -  
Max Temperature 71 °F 70 °F 82 °F (1953)
Min Temperature 61 °F 47 °F 30 °F (1951)
Growing Degree Days 16 (Base 50)    
Moisture  
Dew Point 49 °F    
Average Humidity 58    
Maximum Humidity 81    
Minimum Humidity 46    
Precipitation  
Precipitation 0.00 in - - ()
Sea Level Pressure  
Sea Level Pressure 30.31 in    
Wind  
Wind Speed 4 mph ()    
Max Wind Speed 9 mph    
Max Gust Speed -    
Visibility 10.0 miles    
Events      
Averages and records for this station are not official NWS values.
T = Trace of Precipitation, MM = Missing Value Source: Averaged Metar Reports

Daily Weather History Graph

Daily Weather History Graph

Search for Another Location

Airport or City:

Astronomy

Sep. 30, 2019 Rise Set
Actual Time 6:52 AM EDT 6:41 PM EDT
Civil Twilight 6:25 AM EDT 7:08 PM EDT
Nautical Twilight 5:53 AM EDT 7:40 PM EDT
Astronomical Twilight 5:20 AM EDT 8:12 PM EDT
Moon 8:53 AM EDT (9/30) 8:14 PM EDT (9/30)
Length of Visible Light 12h 43m
Length of Day
11h 48m
Waxing Crescent, 5% of the Moon is Illuminated
Sep 30
Waxing Crescent
Oct 5
First Quarter
Oct 13
Full
Oct 21
Last Quarter
Oct 27
New

Hourly Weather History & Observations

Time (EDT) Temp. Dew Point Humidity Pressure Visibility Wind Dir Wind Speed Gust Speed Precip Events Conditions
12:53 AM 62.1 °F 41.0 °F 46% 30.34 in 10.0 mi Calm Calm - N/A   Clear
1:53 AM 62.1 °F 43.0 °F 50% 30.34 in 10.0 mi Calm Calm - N/A   Clear
2:53 AM 61.0 °F 44.1 °F 54% 30.33 in 10.0 mi NE 3.5 mph - N/A   Clear
3:53 AM 62.1 °F 45.0 °F 53% 30.32 in 10.0 mi NE 4.6 mph - N/A   Clear
4:36 AM 61.0 °F 46.0 °F 58% 30.31 in 10.0 mi Variable 3.5 mph - N/A   Mostly Cloudy
4:53 AM 61.0 °F 45.0 °F 56% 30.33 in 10.0 mi NE 3.5 mph - N/A   Mostly Cloudy
5:53 AM 62.1 °F 45.0 °F 53% 30.33 in 10.0 mi NE 5.8 mph - N/A   Overcast
6:53 AM 61.0 °F 44.1 °F 54% 30.35 in 10.0 mi NE 5.8 mph - N/A   Overcast
7:53 AM 61.0 °F 43.0 °F 52% 30.37 in 10.0 mi NE 4.6 mph - N/A   Overcast
8:08 AM 61.0 °F 43.0 °F 52% 30.35 in 10.0 mi NE 4.6 mph - N/A   Overcast
8:53 AM 61.0 °F 43.0 °F 52% 30.37 in 10.0 mi ENE 8.1 mph - N/A   Overcast
9:53 AM 62.1 °F 44.1 °F 52% 30.37 in 10.0 mi East 8.1 mph - N/A   Mostly Cloudy
10:53 AM 64.0 °F 45.0 °F 50% 30.37 in 10.0 mi ENE 6.9 mph - N/A   Mostly Cloudy
11:53 AM 66.9 °F 48.9 °F 52% 30.35 in 10.0 mi NE 8.1 mph - N/A   Mostly Cloudy
12:53 PM 69.1 °F 52.0 °F 54% 30.33 in 10.0 mi SSE 8.1 mph - N/A   Mostly Cloudy
1:53 PM 70.0 °F 52.0 °F 53% 30.31 in 10.0 mi South 8.1 mph - N/A   Overcast
2:53 PM 70.0 °F 52.0 °F 53% 30.29 in 10.0 mi SSE 5.8 mph - N/A   Overcast
3:53 PM 70.0 °F 53.1 °F 55% 30.27 in 10.0 mi South 9.2 mph - N/A   Overcast
4:53 PM 68.0 °F 54.0 °F 61% 30.26 in 10.0 mi SSE 9.2 mph - N/A   Overcast
5:53 PM 68.0 °F 54.0 °F 61% 30.26 in 10.0 mi South 6.9 mph - N/A   Overcast
6:53 PM 66.9 °F 55.0 °F 66% 30.26 in 10.0 mi Variable 6.9 mph - N/A   Overcast
7:53 PM 66.9 °F 54.0 °F 63% 30.25 in 10.0 mi South 8.1 mph - N/A   Overcast
8:53 PM 66.0 °F 55.0 °F 68% 30.25 in 10.0 mi South 4.6 mph - N/A   Overcast
9:14 PM 66.0 °F 55.0 °F 68% 30.24 in 10.0 mi South 4.6 mph - N/A   Overcast
9:53 PM 66.0 °F 55.0 °F 68% 30.25 in 10.0 mi South 5.8 mph - N/A   Overcast
10:53 PM 66.0 °F 55.0 °F 68% 30.25 in 10.0 mi Variable 3.5 mph - N/A   Overcast
11:53 PM 63.0 °F 57.0 °F 81% 30.24 in 10.0 mi South 3.5 mph - N/A   Overcast